Voltar ao catálogo

BREEZE-M DEB

AtivoHEO
NORAD 32028·DEBRIS·🇷🇺 Russia

Lançado Feb 28, 2006 de Baikonur Cosmodrome

Loading…

Próximas Passagens (próximas 24 horas)

TLE

AtualizadoSource: Space-Track

Época: Sep 10, 2026, 02:44 UTC

1 32028U 06006F   26253.11430210  .00003578  00000-0  67975-2 0  9996
2 32028  51.7188 191.7566 4957808 352.6987   2.1017  5.42461732369949

Acompanhe BREEZE-M DEB em tempo real com AllMySat

Download on the App Store